IZ1UQG-2 Weather Reports


Display with metric or nautical units.
time (UTC)temp
F
wind
direction
speed
MPH
gust
MPH
rain 1hr
in
rain 24hr
in
rain mn
in
humidity
%
barometer
mb
20260906232403 75 294 1.0 2.0 0.00 0.00 0.00 73 1021.2
20260906232004 75 270 1.0 3.0 0.00 0.00 0.00 74 1021.2
20260906231604 75 248 1.0 3.0 0.00 0.00 0.00 74 1021.3
20260906231203 75 227 1.0 3.0 0.00 0.00 0.00 74 1021.3
20260906230804 75 220 1.0 3.0 0.00 0.00 0.00 73 1021.4
20260906230404 75 222 2.0 4.0 0.00 0.00 0.00 74 1021.5
20260906225603 74 218 3.0 4.0 0.00 0.00 0.00 75 1021.4
20260906224804 74 239 1.0 4.0 0.00 0.00 0.00 74 1021.3
20260906224403 75 244 2.0 4.0 0.00 0.00 0.00 74 1021.4
20260906224004 75 240 2.0 5.0 0.00 0.00 0.00 74 1021.3
20260906223204 75 231 3.0 5.0 0.00 0.00 0.00 74 1021.3
20260906222804 74 237 3.0 5.0 0.00 0.00 0.00 75 1021.4
20260906222404 74 242 2.0 5.0 0.00 0.00 0.00 75 1021.2
20260906221605 75 234 2.0 4.0 0.00 0.00 0.00 74 1021.3
20260906221203 75 235 2.0 5.0 0.00 0.00 0.00 74 1021.3
20260906220805 75 232 3.0 6.0 0.00 0.00 0.00 74 1021.2
20260906220403 75 227 4.0 6.0 0.00 0.00 0.00 74 1021.1
20260906215605 75 220 4.0 6.0 0.00 0.00 0.00 73 1021.1
20260906215204 75 220 4.0 6.0 0.00 0.00 0.00 73 1021.1
20260906214804 75 224 4.0 6.0 0.00 0.00 0.00 73 1021.2
20260906214403 75 231 3.0 6.0 0.00 0.00 0.00 73 1021.2
20260906214003 76 241 3.0 5.0 0.00 0.00 0.00 73 1021.0
20260906213603 76 247 3.0 5.0 0.00 0.00 0.00 73 1021.2
20260906213203 76 248 3.0 5.0 0.00 0.00 0.00 73 1021.1
20260906212403 76 232 3.0 6.0 0.00 0.00 0.00 73 1021.3
20260906211603 75 238 4.0 6.0 0.00 0.00 0.00 73 1021.2
20260906211204 76 242 4.0 8.0 0.00 0.00 0.00 73 1021.1
20260906210804 76 237 5.0 8.0 0.00 0.00 0.00 73 1021.1
20260906210404 76 233 5.0 7.0 0.00 0.00 0.00 72 1021.1
20260906210004 76 231 4.0 7.0 0.00 0.00 0.00 72 1021.1
20260906205604 76 233 3.0 6.0 0.00 0.00 0.00 71 1021.0
20260906205204 76 238 2.0 6.0 0.00 0.00 0.00 71 1020.9
20260906204804 76 253 2.0 5.0 0.00 0.00 0.00 71 1020.8
20260906204403 77 236 3.0 6.0 0.00 0.00 0.00 71 1020.7
20260906204003 77 227 4.0 7.0 0.00 0.00 0.00 71 1020.7
20260906203603 77 224 4.0 7.0 0.00 0.00 0.00 70 1020.8
20260906202804 77 237 2.0 5.0 0.00 0.00 0.00 69 1020.7
20260906202404 77 262 1.0 4.0 0.00 0.00 0.00 69 1020.7
20260906202004 77 264 1.0 3.0 0.00 0.00 0.00 69 1020.7
20260906201605 77 270 1.0 3.0 0.00 0.00 0.00 70 1020.8
20260906201204 77 279 1.0 3.0 0.00 0.00 0.00 70 1020.7
20260906200803 77 292 2.0 4.0 0.00 0.00 0.00 71 1020.7
20260906200403 76 310 2.0 4.0 0.00 0.00 0.00 71 1020.7
20260906200004 76 294 3.0 6.0 0.00 0.00 0.00 71 1020.7
20260906195604 77 275 3.0 6.0 0.00 0.00 0.00 70 1020.6
20260906195204 77 245 3.0 6.0 0.00 0.00 0.00 69 1020.4
20260906194803 78 216 4.0 8.0 0.00 0.00 0.00 69 1020.5
20260906194403 78 205 5.0 9.0 0.00 0.00 0.00 69 1020.4
20260906194004 78 201 5.0 9.0 0.00 0.00 0.00 69 1020.3
20260906193603 78 205 5.0 8.0 0.00 0.00 0.00 69 1020.3
20260906193204 78 205 5.0 8.0 0.00 0.00 0.00 68 1020.2
20260906192805 78 202 5.0 10.0 0.00 0.00 0.00 68 1020.2
20260906192405 78 201 6.0 10.0 0.00 0.00 0.00 68 1020.1
20260906190405 78 204 5.0 8.0 0.00 0.00 0.00 68 1020.1
20260906190005 78 204 5.0 8.0 0.00 0.00 0.00 68 1020.1
20260906185205 79 210 5.0 8.0 0.00 0.00 0.00 67 1019.9
20260906184804 79 209 5.0 9.0 0.00 0.00 0.00 67 1019.9
20260906184405 79 206 6.0 9.0 0.00 0.00 0.00 67 1019.9
20260906184005 79 204 5.0 9.0 0.00 0.00 0.00 67 1019.9
20260906183605 79 207 6.0 9.0 0.00 0.00 0.00 67 1019.8
20260906183205 79 208 6.0 9.0 0.00 0.00 0.00 67 1019.8
20260906182805 79 207 6.0 8.0 0.00 0.00 0.00 66 1019.7
20260906181605 80 200 5.0 8.0 0.00 0.00 0.00 66 1019.7
20260906180805 80 200 5.0 8.0 0.00 0.00 0.00 65 1019.7
20260906180404 80 199 5.0 8.0 0.00 0.00 0.00 65 1019.6
20260906175205 81 208 4.0 7.0 0.00 0.00 0.00 66 1019.4
20260906174804 81 213 3.0 7.0 0.00 0.00 0.00 65 1019.5
20260906174405 81 212 3.0 7.0 0.00 0.00 0.00 64 1019.3
20260906174004 81 212 3.0 6.0 0.00 0.00 0.00 64 1019.3
20260906173605 82 215 3.0 6.0 0.00 0.00 0.00 64 1019.2
20260906173204 82 221 3.0 6.0 0.00 0.00 0.00 63 1019.3
20260906172404 83 216 1.0 3.0 0.00 0.00 0.00 62 1019.1
20260906171606 83 212 1.0 3.0 0.00 0.00 0.00 61 1019.1
20260906171204 83 224 2.0 3.0 0.00 0.00 0.00 61 1019.0
20260906170404 83 275 1.0 3.0 0.00 0.00 0.00 58 1019.0
20260906170005 83 276 1.0 3.0 0.00 0.00 0.00 58 1019.0
20260906165604 83 289 0.0 2.0 0.00 0.00 0.00 58 1018.9
20260906165205 84 326 1.0 3.0 0.00 0.00 0.00 57 1018.9
20260906164805 84 322 1.0 3.0 0.00 0.00 0.00 57 1018.8
20260906164404 83 315 2.0 3.0 0.00 0.00 0.00 57 1018.8
20260906164005 84 270 1.0 3.0 0.00 0.00 0.00 57 1018.8
20260906163605 85 144 1.0 4.0 0.00 0.00 0.00 56 1018.8
20260906163205 85 123 1.0 6.0 0.00 0.00 0.00 56 1018.7
20260906162805 85 106 2.0 6.0 0.00 0.00 0.00 55 1018.7
20260906162405 85 103 2.0 5.0 0.00 0.00 0.00 55 1018.7
20260906162004 85 105 2.0 6.0 0.00 0.00 0.00 55 1018.8
20260906161605 85 102 4.0 7.0 0.00 0.00 0.00 55 1018.7
20260906160805 85 82 3.0 7.0 0.00 0.00 0.00 54 1018.6
20260906160404 86 57 2.0 5.0 0.00 0.00 0.00 54 1018.5
20260906160005 86 39 1.0 5.0 0.00 0.00 0.00 53 1018.5
20260906155605 86 70 2.0 8.0 0.00 0.00 0.00 53 1018.5
20260906155205 86 87 3.0 8.0 0.00 1.00 0.00 53 1018.5
20260906154804 86 91 3.0 8.0 0.00 1.00 0.00 53 1018.5
20260906154005 86 90 4.0 9.0 0.00 1.00 0.00 52 1018.5
20260906153605 86 89 4.0 10.0 0.00 1.00 0.00 51 1018.5
20260906153205 86 87 4.0 10.0 0.00 1.00 0.00 51 1018.6
20260906152005 86 82 4.0 8.0 0.00 1.00 0.00 52 1018.6
20260906151604 86 78 5.0 11.0 0.00 1.00 0.00 53 1018.6
20260906151205 86 80 6.0 11.0 0.00 1.00 0.00 53 1018.6
20260906150805 86 80 6.0 11.0 0.00 1.00 0.00 52 1018.6
20260906150404 86 76 4.0 10.0 0.00 1.00 0.00 52 1018.5
20260906150005 87 64 4.0 10.0 0.00 1.00 0.00 52 1018.7
20260906145205 86 79 5.0 11.0 0.00 1.00 0.00 53 1018.6
20260906144804 86 76 6.0 11.0 0.00 1.01 0.00 53 1018.7
20260906144404 86 81 6.0 11.0 0.00 1.01 0.00 52 1018.7
20260906144005 86 82 6.0 11.0 0.00 1.01 0.00 52 1018.8
20260906143605 86 79 5.0 12.0 0.00 1.01 0.00 51 1018.8
20260906143205 87 80 6.0 12.0 0.00 1.01 0.00 51 1018.8
20260906142804 86 83 8.0 12.0 0.00 2.01 0.00 51 1018.9
20260906142405 86 79 7.0 12.0 0.00 2.01 0.00 51 1018.8
20260906142006 86 82 6.0 12.0 0.00 2.01 0.00 51 1018.9
20260906141604 86 86 6.0 12.0 0.00 2.01 0.00 50 1018.9
20260906141205 86 82 6.0 12.0 0.00 2.01 0.00 50 1018.8
20260906140805 86 82 6.0 12.0 0.00 2.01 0.00 50 1018.8
20260906140405 86 89 6.0 10.0 0.00 2.01 0.00 51 1018.9
20260906140005 86 95 6.0 12.0 0.00 2.01 0.00 51 1018.9
20260906135604 86 92 7.0 12.0 0.00 2.02 0.00 51 1018.9
20260906135204 86 90 7.0 12.0 0.00 2.02 0.00 51 1019.0
20260906134805 86 86 7.0 12.0 0.00 2.02 0.00 51 1019.1
20260906134005 86 87 7.0 12.0 0.00 2.02 0.00 51 1019.1
20260906133605 86 88 7.0 12.0 0.00 2.02 0.00 51 1019.2
20260906133204 86 88 8.0 12.0 0.00 2.02 0.00 50 1019.2
20260906132405 85 77 8.0 13.0 0.00 2.02 0.00 52 1019.3
20260906132005 85 80 8.0 12.0 0.00 2.02 0.00 52 1019.3
20260906131605 85 84 7.0 12.0 0.00 2.02 0.00 51 1019.3
20260906131204 86 86 6.0 12.0 0.00 2.02 0.00 50 1019.3
20260906130404 86 79 6.0 12.0 0.00 2.02 0.00 50 1019.4
20260906130005 85 83 7.0 12.0 0.00 2.02 0.00 51 1019.5
20260906125605 85 84 8.0 12.0 0.00 2.02 0.00 50 1019.5
20260906125204 85 83 8.0 12.0 0.00 2.02 0.00 51 1019.6
20260906124805 84 83 8.0 12.0 0.00 2.02 0.00 51 1019.7
20260906124405 85 86 8.0 13.0 0.00 2.02 0.00 50 1019.7
20260906124005 85 85 8.0 13.0 0.00 2.02 0.00 50 1019.8
20260906123604 84 88 9.0 13.0 0.00 2.02 0.00 51 1019.7
20260906122804 85 88 7.0 11.0 0.00 3.02 0.00 50 1019.7
20260906122404 85 81 7.0 11.0 0.00 3.02 0.00 50 1019.7
20260906122005 85 80 7.0 12.0 0.00 3.02 0.00 51 1019.8
20260906121605 84 81 6.0 12.0 0.00 3.02 0.00 51 1019.8
20260906120804 84 88 7.0 11.0 0.00 4.02 0.00 51 1019.9
20260906120406 85 90 6.0 11.0 0.00 4.02 0.00 49 1019.8
20260906115605 86 88 5.0 10.0 0.00 5.04 0.00 48 1019.7
20260906115205 85 94 5.0 10.0 0.00 5.04 0.00 49 1019.8
20260906114404 85 83 5.0 10.0 0.00 5.04 0.00 49 1019.8
20260906114005 85 81 5.0 10.0 0.00 5.04 0.00 49 1019.9
20260906113604 86 81 4.0 9.0 0.00 5.04 0.00 48 1019.9
20260906113204 85 78 3.0 8.0 0.00 5.04 0.00 49 1020.0
20260906112805 85 74 3.0 8.0 0.00 5.04 0.00 48 1019.9
20260906112405 84 65 2.0 5.0 0.00 5.04 0.00 49 1020.1
20260906112005 85 18 2.0 5.0 0.00 5.04 0.00 48 1020.0
20260906111605 86 78 2.0 5.0 0.00 5.04 0.00 46 1020.0
20260906111205 85 94 2.0 5.0 0.00 5.04 0.00 46 1020.1
20260906110805 84 119 2.0 6.0 0.00 5.04 0.00 47 1020.2
20260906110405 84 119 2.0 6.0 0.00 6.04 0.00 47 1020.2
20260906105604 84 108 2.0 6.0 0.00 6.05 0.00 45 1020.3
20260906104804 83 103 3.0 6.0 0.00 6.05 0.00 44 1020.2
20260906104404 83 109 3.0 6.0 0.00 6.05 0.00 44 1020.4
20260906103604 83 119 2.0 6.0 0.00 6.05 0.00 44 1020.4
20260906103204 83 121 2.0 6.0 0.00 6.05 0.00 45 1020.4
20260906102804 83 109 3.0 6.0 0.00 6.05 0.00 46 1020.4
20260906102405 82 106 3.0 6.0 0.00 6.05 0.00 47 1020.5
20260906102005 82 105 3.0 6.0 0.00 6.05 0.00 46 1020.6
20260906101605 82 107 3.0 6.0 0.00 6.05 0.00 47 1020.5
20260906101205 82 108 2.0 6.0 0.00 6.05 0.00 47 1020.7
20260906100805 82 97 2.0 6.0 0.00 6.05 0.00 47 1020.9
20260906100405 82 85 2.0 6.0 0.00 6.05 0.00 46 1020.8
20260906095605 82 120 2.0 5.0 0.00 6.05 0.00 48 1020.8
20260906095204 82 130 2.0 5.0 0.00 6.05 0.00 48 1020.9
20260906094805 81 109 1.0 5.0 0.00 6.05 0.00 48 1021.0
20260906094405 81 101 1.0 4.0 0.00 6.05 0.00 49 1021.0
20260906094005 81 108 1.0 4.0 0.00 6.05 0.00 49 1021.1
20260906093604 80 95 2.0 4.0 0.00 6.05 0.00 50 1021.0
20260906093205 80 95 2.0 4.0 0.00 6.05 0.00 50 1021.1
20260906092805 80 127 1.0 4.0 0.00 6.05 0.00 49 1021.2
20260906092404 80 154 1.0 3.0 0.00 6.05 0.00 50 1021.2
20260906092006 79 162 1.0 4.0 0.00 6.05 0.00 50 1021.3
20260906091604 79 173 1.0 4.0 0.00 7.05 0.00 51 1021.3
20260906091204 79 244 1.0 3.0 0.00 7.05 0.00 52 1021.3
20260906090804 79 330 1.0 3.0 0.00 7.05 0.00 52 1021.4
20260906090405 78 347 1.0 3.0 0.00 7.05 0.00 53 1021.4
20260906090005 78 347 1.0 3.0 0.00 7.05 0.00 52 1021.4
20260906085605 77 341 2.0 3.0 0.00 7.05 0.00 53 1021.5
20260906085204 77 338 2.0 3.0 0.00 7.05 0.00 52 1021.4
20260906084004 76 356 1.0 3.0 0.00 7.05 0.00 55 1021.5
20260906083605 76 336 2.0 4.0 0.00 7.05 0.00 57 1021.5
20260906082406 74 338 1.0 3.0 0.00 8.06 0.00 58 1021.5
20260906081604 74 334 1.0 4.0 0.00 8.06 0.00 58 1021.6
20260906081205 74 318 1.0 4.0 0.00 8.06 0.00 59 1021.6
20260906080804 73 311 2.0 4.0 0.00 9.06 0.00 60 1021.6
20260906075606 73 345 1.0 4.0 0.00 9.06 0.00 59 1021.6
20260906075205 72 345 2.0 4.0 0.00 9.07 0.00 60 1021.6
20260906074804 72 341 3.0 5.0 0.00 9.07 0.00 61 1021.5
20260906074405 71 338 3.0 5.0 0.00 9.07 0.00 61 1021.6
20260906073204 71 338 2.0 4.0 0.00 9.07 0.00 61 1021.5
20260906072805 71 343 3.0 5.0 0.00 9.07 0.00 61 1021.4
20260906072005 71 349 3.0 6.0 0.00 9.07 0.00 60 1021.4
20260906071604 71 343 3.0 6.0 0.00 9.07 0.00 60 1021.4
20260906071205 71 343 3.0 6.0 0.00 9.07 0.00 60 1021.4
20260906070805 71 340 3.0 6.0 0.00 9.07 0.00 61 1021.4
20260906070404 71 346 3.0 6.0 0.00 9.07 0.00 61 1021.4
20260906070005 71 348 3.0 7.0 0.00 9.07 0.00 62 1021.4
20260906065604 71 353 3.0 7.0 0.00 9.07 0.00 61 1021.4
20260906065205 70 351 4.0 7.0 0.00 9.07 0.00 62 1021.4
20260906064804 70 355 3.0 6.0 0.00 9.07 0.00 63 1021.3
20260906064404 70 354 3.0 5.0 0.00 9.07 0.00 63 1021.3
20260906064005 70 343 3.0 6.0 0.00 9.07 0.00 63 1021.3
20260906063205 71 337 2.0 5.0 0.00 9.07 0.00 61 1021.1
20260906062804 71 345 1.0 3.0 0.00 9.07 0.00 62 1021.0
20260906062405 71 327 1.0 2.0 0.00 9.07 0.00 61 1021.1
20260906062005 71 281 1.0 3.0 0.00 9.07 0.00 60 1021.0
20260906061605 71 252 1.0 3.0 0.00 9.07 0.00 61 1020.9
20260906061204 71 249 1.0 3.0 0.00 9.07 0.00 61 1020.9
20260906060405 70 259 1.0 4.0 0.00 9.07 0.00 64 1020.7
20260906060005 70 270 1.0 4.0 0.00 9.07 0.00 64 1020.7
20260906055605 70 278 1.0 3.0 0.00 9.07 0.00 64 1020.7
20260906055204 70 250 2.0 5.0 0.00 9.07 0.00 65 1020.7
20260906054804 70 225 3.0 7.0 0.00 9.07 0.00 64 1020.6
20260906054404 69 221 4.0 7.0 0.00 9.07 0.00 63 1020.6
20260906054005 69 219 4.0 7.0 0.00 9.07 0.00 65 1020.5
20260906053204 68 243 3.0 5.0 0.00 9.07 0.00 65 1020.3
20260906052804 69 268 2.0 4.0 0.00 9.07 0.00 64 1020.3
20260906052404 69 271 2.0 4.0 0.00 9.07 0.00 65 1020.2
20260906052005 69 262 1.0 4.0 0.00 9.07 0.00 65 1020.1
20260906051605 69 251 2.0 5.0 0.00 9.07 0.00 66 1020.1
20260906051204 69 247 3.0 7.0 0.00 9.07 0.00 66 1020.0
20260906050805 68 239 4.0 9.0 0.00 9.07 0.00 67 1020.0
20260906050404 68 230 5.0 9.0 0.00 9.07 0.00 67 1020.0
20260906050005 68 224 6.0 9.0 0.00 9.07 0.00 67 1020.0
20260906045605 68 226 6.0 8.0 0.00 9.07 0.00 66 1020.0
20260906045204 69 228 4.0 8.0 0.00 9.07 0.00 66 1019.8
20260906044805 69 237 2.0 7.0 0.00 9.07 0.00 65 1019.7
20260906044005 69 225 3.0 5.0 0.00 9.07 0.00 66 1019.6
20260906043604 69 231 3.0 5.0 0.00 9.07 0.00 66 1019.6
20260906042804 69 241 3.0 6.0 0.00 9.07 0.00 65 1019.6
20260906042404 69 234 3.0 6.0 0.00 9.07 0.00 65 1019.4
20260906042004 69 236 2.0 4.0 0.00 9.07 0.00 65 1019.5
20260906041605 69 241 3.0 7.0 0.00 9.07 0.00 64 1019.4
20260906041204 69 233 4.0 8.0 0.00 9.07 0.00 65 1019.4
20260906040804 69 229 6.0 10.0 0.00 9.07 0.00 65 1019.4
20260906040404 69 230 6.0 10.0 0.00 9.07 0.00 65 1019.4
20260906040005 69 228 5.0 10.0 0.00 9.07 0.00 65 1019.5
20260906034805 69 222 6.0 8.0 0.00 9.07 0.00 65 1019.3
20260906034404 69 225 5.0 8.0 0.00 9.07 0.00 65 1019.3
20260906034005 69 229 4.0 7.0 0.00 9.07 0.00 65 1019.2
20260906033605 70 235 3.0 5.0 0.00 9.07 0.00 64 1019.2
20260906033205 70 239 2.0 5.0 0.00 9.07 0.00 62 1019.0
20260906032805 70 247 1.0 4.0 0.00 9.07 0.00 63 1019.1
20260906031205 71 264 2.0 5.0 0.00 9.07 0.00 61 1019.0
20260906030804 71 272 2.0 5.0 0.00 9.07 0.00 61 1019.1
20260906030404 71 259 3.0 5.0 0.00 9.07 0.00 61 1019.0
20260906030005 71 240 4.0 7.0 0.00 9.07 0.00 60 1018.9
20260906025604 71 240 5.0 7.0 0.00 9.07 0.00 61 1018.8
20260906025205 71 260 4.0 7.0 0.00 9.07 0.00 61 1018.9
20260906024804 70 266 4.0 10.0 0.00 9.07 0.00 64 1018.9
20260906024405 70 233 6.0 12.0 0.00 9.07 0.00 64 1018.9
20260906024004 70 219 8.0 12.0 0.00 9.07 0.00 64 1018.9
20260906023605 70 216 8.0 12.0 0.00 9.07 0.00 65 1018.8
20260906023204 70 215 7.0 9.0 0.00 9.07 0.00 65 1018.8
20260906022804 70 215 6.0 9.0 0.00 9.07 0.00 65 1018.8
20260906022004 70 225 2.0 8.0 0.00 9.07 0.00 64 1018.7
20260906021604 71 224 2.0 4.0 0.00 9.07 0.00 63 1018.7
20260906021205 71 251 2.0 4.0 0.00 9.07 0.00 61 1018.6
20260906020805 72 281 1.0 4.0 0.00 9.07 0.00 61 1018.5
20260906020404 71 270 1.0 4.0 0.00 9.07 0.00 61 1018.4
20260906020006 71 239 1.0 2.0 0.00 9.07 0.00 65 1018.4
20260906015604 71 176 1.0 3.0 0.00 9.07 0.00 64 1018.4
20260906014404 72 265 1.0 3.0 0.00 9.07 0.00 59 1018.2
20260906014005 72 247 2.0 3.0 0.00 9.07 0.00 57 1018.1
20260906013205 73 279 1.0 3.0 0.00 9.07 0.00 56 1018.1
20260906012805 72 278 1.0 3.0 0.00 9.07 0.00 59 1018.1
20260906012005 73 243 1.0 2.0 0.00 9.07 0.00 58 1017.9
20260906011204 72 249 1.0 3.0 0.00 9.07 0.00 59 1018.0
20260906010405 73 277 1.0 4.0 0.00 9.07 0.00 57 1017.9
20260906005604 73 286 2.0 5.0 0.00 9.07 0.00 57 1017.9
20260906005204 73 302 3.0 5.0 0.00 9.07 0.00 58 1018.0
20260906004805 73 309 3.0 5.0 0.00 9.07 0.00 58 1018.0
20260906004404 73 316 3.0 6.0 0.00 9.07 0.00 58 1017.9
20260906004006 73 324 4.0 6.0 0.00 9.07 0.00 58 1017.9
20260906003605 73 326 3.0 6.0 0.00 9.07 0.00 57 1018.0
20260906002805 73 317 3.0 5.0 0.00 9.07 0.00 59 1017.9
20260906002404 73 318 3.0 5.0 0.00 9.07 0.00 59 1017.9
20260906002005 73 314 2.0 5.0 0.00 9.07 0.00 60 1017.9
20260906001205 73 262 2.0 4.0 0.00 9.07 0.00 61 1017.9
20260906000805 73 270 2.0 4.0 0.00 9.07 0.00 60 1017.9
20260906000404 73 270 2.0 5.0 0.00 9.07 0.00 59 1017.9
20260906000005 73 284 3.0 5.0 0.00 9.07 0.00 59 1017.9
20260905235604 73 306 2.0 4.0 0.00 9.07 0.00 60 1018.1
20260905235204 73 338 2.0 4.0 0.00 9.07 0.00 60 1018.1
20260905234805 74 358 1.0 3.0 0.00 9.07 0.00 59 1018.0
20260905234404 74 353 1.0 4.0 0.00 9.07 0.00 58 1017.9
20260905234005 74 324 1.0 4.0 0.00 9.07 0.00 59 1018.0
20260905233604 74 309 2.0 4.0 0.00 9.07 0.00 58 1018.0
20260905233204 74 292 2.0 4.0 0.00 9.07 0.00 60 1018.0
20260905232804 75 278 2.0 4.0 0.00 9.07 0.00 58 1017.8